Danville, IL

1:34 PM CST on February 21, 2017 (GMT -0600)
Vermilion County

Weather History for KDNV - July, 2013

Change the Weather History Date:

Wednesday, July 10, 2013

  Actual Average (KCMI) Record (KCMI)
Temperature  
Mean Temperature 76 °F -  
Max Temperature 88 °F 82 °F 90 °F (2001)
Min Temperature 64 °F 61 °F 55 °F (2005)
Cooling Degree Days 12    
Growing Degree Days 26 (Base 50)    
Moisture  
Dew Point 71 °F    
Average Humidity 79    
Maximum Humidity 92    
Minimum Humidity 55    
Precipitation  
Precipitation 0.24 in - - ()
Sea Level Pressure  
Sea Level Pressure 29.90 in    
Wind  
Wind Speed 8 mph (WSW)    
Max Wind Speed 24 mph    
Max Gust Speed 37 mph    
Visibility 7 miles    
Events Rain    
Averages and records for this station are not official NWS values.
T = Trace of Precipitation, MM = Missing Value Source: NWS Daily Summary

Daily Weather History Graph

Daily Weather History Graph

Search for Another Location

Airport or City:

Trip Planner

Search our weather history database for the weather conditions in past years. The results will help you decide how hot, cold, wet, or windy it might be!

Date:

Astronomy

Jul. 10, 2013 Rise Set
Actual Time 5:30 AM CDT 8:21 PM CDT
Civil Twilight 4:57 AM CDT 8:53 PM CDT
Nautical Twilight 4:17 AM CDT 9:34 PM CDT
Astronomical Twilight 3:30 AM CDT 10:20 PM CDT
Moon 7:51 AM CDT (7/10) 9:30 PM CDT (7/10)
Length of Visible Light 15h 55m
Length of Day
14h 51m
Waxing Crescent, 5% of the Moon is Illuminated
Jul 10
Waxing Crescent
Jul 15
First Quarter
Jul 22
Full
Jul 29
Last Quarter
Aug 6
New

Hourly Weather History & Observations

Time (CDT) Temp. Heat Index Dew Point Humidity Pressure Visibility Wind Dir Wind Speed Gust Speed Precip Events Conditions
12:35 AM 79.3 °F - 74.3 °F 84% 29.92 in 7.0 mi SW 6.9 mph - N/A Rain Rain
12:55 AM 79.2 °F - 74.5 °F 86% 29.92 in 7.0 mi SSW 6.9 mph - N/A Rain Rain
1:15 AM 79.0 °F - 74.3 °F 85% 29.91 in 7.0 mi SSW 6.9 mph - N/A Rain Rain
1:35 AM 78.8 °F - 74.3 °F 86% 29.91 in 7.0 mi SSW 6.9 mph - N/A Rain Rain
2:55 AM 77.5 °F - 73.9 °F 89% 29.90 in 7.0 mi SW 6.9 mph - N/A Rain Heavy Rain
3:15 AM 77.2 °F - 73.8 °F 89% 29.89 in 7.0 mi SSW 5.8 mph - N/A Rain Heavy Rain
3:35 AM 77.0 °F - 73.6 °F 89% 29.90 in 7.0 mi SSW 5.8 mph - N/A Rain Heavy Rain
3:55 AM 77.4 °F - 74.3 °F 90% 29.90 in 7.0 mi SSW 6.9 mph - N/A Rain Rain
4:15 AM 77.7 °F - 74.3 °F 89% 29.89 in 7.0 mi SW 6.9 mph - N/A Rain Heavy Rain
4:35 AM 77.9 °F - 74.3 °F 89% 29.89 in 7.0 mi SW 8.1 mph - N/A Rain Rain
4:55 AM 77.9 °F - 74.3 °F 89% 29.89 in 7.0 mi SW 6.9 mph - N/A Rain Rain
5:15 AM 77.9 °F - 74.1 °F 88% 29.88 in 7.0 mi SSW 5.8 mph - N/A Rain Rain
5:35 AM 77.4 °F - 73.8 °F 89% 29.87 in 7.0 mi SSW 6.9 mph - N/A Rain Rain
5:55 AM 77.4 °F - 74.1 °F 90% 29.86 in 7.0 mi SSW 8.1 mph - N/A Rain Rain
6:15 AM 78.1 °F - 74.7 °F 89% 29.86 in 5.0 mi SW 6.9 mph - N/A Rain Heavy Rain
6:35 AM 79.0 °F - 75.2 °F 88% 29.86 in 7.0 mi SW 6.9 mph - N/A Rain Rain
6:55 AM 80.6 °F 86.4 °F 75.7 °F 85% 29.86 in 7.0 mi SW 9.2 mph - N/A Rain Rain
7:15 AM 81.7 °F 88.5 °F 75.7 °F 82% 29.87 in 7.0 mi SSW 8.1 mph - N/A Rain Rain
7:35 AM 82.9 °F 90.5 °F 75.6 °F 78% 29.87 in 5.0 mi SW 8.1 mph - N/A Rain Rain
7:55 AM 82.4 °F 89.5 °F 75.2 °F 79% 29.88 in 7.0 mi SW 9.2 mph - N/A Rain Rain
8:15 AM 83.3 °F 92.1 °F 76.5 °F 80% 29.87 in 7.0 mi SW 9.2 mph - N/A Rain Rain
8:35 AM 84.6 °F 94.3 °F 76.5 °F 77% 29.87 in 7.0 mi SSW 6.9 mph - N/A Rain Rain
8:55 AM 85.5 °F 95.9 °F 76.8 °F 75% 29.86 in 7.0 mi SW 10.4 mph - N/A Rain Rain
9:15 AM 82.4 °F 89.0 °F 74.7 °F 77% 29.84 in 5.0 mi SW 6.9 mph - N/A Rain Light Rain
9:35 AM 80.2 °F 85.2 °F 74.5 °F 83% 29.85 in 7.0 mi SSW 5.8 mph 9.2 mph 0.02 in Rain Light Rain
9:55 AM 79.2 °F - 75.2 °F 88% 29.86 in 5.0 mi WNW 8.1 mph - 0.02 in Rain Rain
10:15 AM 77.5 °F - 72.9 °F 85% 29.87 in 7.0 mi NW 11.5 mph 16.1 mph N/A Rain Rain
10:35 AM 74.5 °F - 68.2 °F 81% 29.94 in 7.0 mi SW 24.2 mph 36.8 mph 0.01 in Rain Heavy Rain
10:55 AM 70.7 °F - 66.2 °F 86% 29.97 in 1.5 mi WSW 20.7 mph 31.1 mph 0.05 in Rain Rain
11:15 AM 69.8 °F - 66.6 °F 89% 29.99 in 10.0 mi West 13.8 mph 19.6 mph 0.01 in Rain Rain
11:35 AM 70.7 °F - 68.0 °F 91% 29.99 in 7.0 mi SW 15.0 mph 27.6 mph 0.04 in Rain Light Rain
11:55 AM 71.1 °F - 68.5 °F 92% 29.98 in 10.0 mi SSW 19.6 mph 28.8 mph 0.10 in Rain Rain
12:15 PM 71.6 °F - 68.9 °F 91% 29.94 in 5.0 mi SW 18.4 mph 27.6 mph 0.05 in Rain Heavy Rain
12:35 PM 72.9 °F - 70.5 °F 92% 29.96 in 10.0 mi SW 12.7 mph 20.7 mph 0.07 in Rain Light Rain
1:15 PM 77.7 °F - 74.5 °F 90% 29.94 in 10.0 mi SW 8.1 mph - N/A Rain Rain
1:35 PM 80.6 °F 86.4 °F 75.6 °F 85% 29.92 in 7.0 mi WSW 9.2 mph - N/A Rain Rain
1:55 PM 81.5 °F 86.7 °F 73.4 °F 76% 29.91 in 10.0 mi West 10.4 mph 18.4 mph N/A Rain Rain
2:15 PM 83.1 °F 88.9 °F 72.9 °F 71% 29.89 in 7.0 mi West 6.9 mph - N/A Rain Rain
2:35 PM 84.2 °F 90.9 °F 73.4 °F 70% 29.87 in 10.0 mi West 12.7 mph 18.4 mph N/A Rain Rain
2:55 PM 86.0 °F 93.4 °F 73.6 °F 66% 29.86 in 7.0 mi WNW 10.4 mph - N/A Rain Rain
3:35 PM 86.4 °F 95.1 °F 74.5 °F 68% 29.85 in 7.0 mi WNW 11.5 mph 16.1 mph N/A Rain Rain
4:15 PM 86.2 °F 93.8 °F 73.6 °F 66% 29.84 in 7.0 mi NW 10.4 mph 19.6 mph N/A Rain Rain
4:35 PM 86.7 °F 94.6 °F 73.8 °F 65% 29.84 in 7.0 mi NW 15.0 mph 20.7 mph N/A Rain Rain
4:55 PM 87.8 °F 92.6 °F 70.0 °F 55% 29.84 in 7.0 mi NW 13.8 mph 19.6 mph N/A Rain Rain
5:15 PM 88.0 °F 93.4 °F 70.3 °F 56% 29.84 in 7.0 mi NNW 8.1 mph - N/A Rain Rain
5:35 PM 87.4 °F 92.3 °F 70.0 °F 56% 29.85 in 7.0 mi NNW 11.5 mph 18.4 mph N/A Rain Rain
5:55 PM 87.1 °F 91.3 °F 68.9 °F 55% 29.85 in 10.0 mi NW 10.4 mph 17.3 mph N/A Rain Rain
6:15 PM 86.0 °F 90.4 °F 69.8 °F 58% 29.87 in 7.0 mi NNW 9.2 mph 20.7 mph N/A Rain Rain
6:55 PM 85.3 °F 89.4 °F 69.3 °F 59% 29.88 in 10.0 mi NNW 8.1 mph - N/A Rain Rain
7:15 PM 83.5 °F 87.2 °F 69.1 °F 62% 29.89 in 7.0 mi North 5.8 mph - N/A Rain Rain
7:35 PM 82.6 °F 85.9 °F 68.7 °F 63% 29.90 in 7.0 mi NNE 8.1 mph - N/A Rain Rain
7:55 PM 79.0 °F - 66.4 °F 65% 29.91 in 7.0 mi NE 9.2 mph - N/A Rain Rain
8:15 PM 77.2 °F - 67.1 °F 71% 29.92 in 7.0 mi NE 9.2 mph - N/A Rain Rain
8:35 PM 75.6 °F - 66.6 °F 74% 29.93 in 7.0 mi NE 6.9 mph - N/A Rain Heavy Rain
8:55 PM 74.8 °F - 67.1 °F 77% 29.94 in 7.0 mi NE 9.2 mph - N/A Rain Rain
9:15 PM 73.4 °F - 64.6 °F 74% 29.95 in 7.0 mi NE 8.1 mph - N/A Rain Rain
9:35 PM 71.8 °F - 63.5 °F 75% 29.96 in 7.0 mi NE 6.9 mph - N/A Rain Rain
9:55 PM 70.7 °F - 62.6 °F 75% 29.97 in 10.0 mi NE 5.8 mph - N/A Rain Rain
10:15 PM 69.6 °F - 61.7 °F 76% 29.97 in 7.0 mi NE 4.6 mph - N/A Rain Rain
10:35 PM 68.5 °F - 61.0 °F 77% 29.97 in 7.0 mi NE 5.8 mph - N/A Rain Rain
10:55 PM 68.2 °F - 61.0 °F 78% 29.97 in 7.0 mi NNE 4.6 mph - N/A Rain Rain
11:15 PM 66.9 °F - 60.6 °F 80% 29.98 in 7.0 mi NNE 5.8 mph - N/A Rain Rain
11:35 PM 65.7 °F - 60.8 °F 84% 29.98 in 7.0 mi NNE 5.8 mph - N/A Rain Rain
11:55 PM 64.8 °F - 60.1 °F 85% 29.98 in 7.0 mi NE 4.6 mph - N/A Rain Heavy Rain